ELEKTRO-L 4

Last updated on Fri Jul 11 2025 00:02:46 GMT+0000 (Coordinated Universal Time)

1 55506U 23016A 25190.73968595 -.00000044 00000+0 00000+0 0 9999 2 55506 0.0853 228.1187 0001167 314.9513 176.9266 1.00270312 8909
UTC large
Height (km)
Speed (km/s)
/
Latitude / Longitude
Inclination (degrees)
Orbital Period (minutes)
Azimuth
Elevation
Range (km)
Doppler Factor

Next 0 passes for location: London (51.5072 / 0.1276)

Sorry there are no passes over London.